This demonstration page uses our WeatherBlox Daily Observations layout. Learn more.

Left ArrowRight Arrow

40.92501, -98.34201

Hourly Observations for May 14, 2020

Temp ( °F °C ) Dew Point ( °F °C ) Humidity (%) Winds ( mph kmh ) Pressure ( in mb ) Visibility ( mi km ) Precip ( " mm )
12:15 am 00:15 Cloudy with Mist and Fog 53 11.7 51 10.6 93 93 ENE 5 7 29.83 1010 5 8 0.00 0.00
12:40 am 00:40 Cloudy with Mist and Fog 53 11.7 51 10.6 93 93 ESE 6 9 29.83 1010 2 3 0.00 0.00
12:49 am 00:49 Cloudy with Fog 52 11 50 10 94 94 E 5 7 29.83 1010 0 0 0.00 0.00
12:50 am 00:50 Cloudy with Fog 52 11.1 50 10 93 93 E 5 7 29.84 1011 0 0 0.00 0.00
1:06 am 01:06 Mostly Cloudy with Fog 51 10.6 50 10 96 96 E 5 7 29.82 1010 0 0 0.00 0.00
1:16 am 01:16 Mostly Cloudy with Fog 51 10.6 49 9.4 92 92 NNE 5 7 29.82 1010 0 0 0.00 0.00
1:53 am 01:53 Mostly Cloudy with Fog 51 10.6 50 10 96 96 Calm 29.85 1011 0 0 0.00 0.00
2:53 am 02:53 Mostly Cloudy with Fog 52 11.1 50 10 93 93 Calm 29.84 1011 0 0 0.00 0.00
3:19 am 03:19 Cloudy with Fog 52 11.1 50 10 93 93 NNE 5 7 29.80 1009 0 0 0.00 0.00
3:53 am 03:53 Cloudy with Fog 52 11.1 50 10 93 93 Calm 29.82 1010 0 0 0.00 0.00
4:08 am 04:08 Cloudy with Fog 52 11.1 50 10 93 93 Calm 29.81 1010 1 1 0.00 0.00
4:29 am 04:29 Cloudy with Fog 52 11.1 50 10 93 93 N 3 6 29.80 1009 1 1 0.00 0.00
4:53 am 04:53 Cloudy with Fog 52 11.1 50 10 93 93 Calm 29.82 1010 1 1 0.00 0.00
5:06 am 05:06 Cloudy with Mist and Fog 52 11.1 50 10 93 93 NNW 6 9 29.81 1010 2 3 0.00 0.00
5:15 am 05:15 Cloudy with Mist and Fog 52 11.1 50 10 93 93 NNW 5 7 29.80 1009 3 5 0.00 0.00
5:53 am 05:53 Cloudy with Mist and Fog 52 11.1 50 10 93 93 N 10 17 29.82 1010 4 6 0.00 0.00
6:15 am 06:15 Cloudy with Mist and Fog 52 11.1 50 10 93 93 N 8 13 29.81 1010 5 8 0.00 0.00
6:53 am 06:53 Cloudy 53 11.7 50 10 89 89 Calm 29.84 1011 8 13 0.00 0.00
7:10 am 07:10 Cloudy 53 11.7 50 10 89 89 N 7 11 29.84 1010 8 13 0.00 0.00
7:21 am 07:21 Cloudy 53 11.7 50 10 89 89 N 6 9 29.85 1011 9 14 0.00 0.00
7:30 am 07:30 Cloudy 52 11.1 49 9.4 89 89 N 8 13 29.85 1011 7 11 0.00 0.00
7:46 am 07:46 Cloudy with Mist and Fog 52 11.1 49 9.4 89 89 N 6 9 29.86 1011 1 2 0.00 0.00
7:53 am 07:53 Cloudy with Fog 52 11.1 50 10 93 93 N 7 11 29.87 1012 1 1 0.00 0.00
8:11 am 08:11 Cloudy with Fog 52 11.1 50 10 93 93 N 7 11 29.87 1012 0 0 0.00 0.00
8:26 am 08:26 Mostly Cloudy with Fog 52 11.1 50 10 93 93 N 6 9 29.87 1012 0 0 0.00 0.00
8:53 am 08:53 Mostly Cloudy with Fog 53 11.7 51 10.6 93 93 N 9 15 29.88 1012 0 0 0.00 0.00
9:06 am 09:06 Mostly Cloudy with Fog 53 11.7 51 10.6 93 93 NNE 8 13 29.87 1011 0 0 0.00 0.00
9:27 am 09:27 Cloudy with Mist and Fog 53 11.7 51 10.6 93 93 NE 7 11 29.87 1011 1 2 0.00 0.00
9:53 am 09:53 Cloudy with Mist and Fog 54 12.2 51 10.6 90 90 NE 6 9 29.87 1012 3 5 0.00 0.00
10:38 am 10:38 Partly Cloudy 59 15 52 11.1 78 78 ENE 6 9 29.82 1010 9 14 0.00 0.00
10:53 am 10:53 Mostly Sunny 60 15.6 52 11.1 75 75 VRB 6 9 29.84 1011 10 16 0.00 0.00
11:53 am 11:53 Sunny 67 19.4 52 11.1 59 59 E 6 9 29.83 1010 10 16 0.00 0.00
12:53 pm 12:53 Sunny 72 22.2 53 11.7 52 52 N 6 9 29.83 1010 10 16 0.00 0.00
1:53 pm 13:53 Sunny 74 23.3 52 11.1 46 46 VRB 7 11 29.81 1010 10 16 0.00 0.00
2:53 pm 14:53 Sunny 77 25 52 11.1 42 42 N 6 9 29.80 1009 10 16 0.00 0.00
3:53 pm 15:53 Sunny 78 25.6 49 9.4 36 36 NNE 8 13 29.79 1009 10 16 0.00 0.00
4:53 pm 16:53 Sunny 79 26.1 48 8.9 34 34 N 9 15 29.78 1008 10 16 0.00 0.00
5:53 pm 17:53 Sunny 78 25.6 46 7.8 32 32 NNE 13 20 29.79 1009 10 16 0.00 0.00
6:53 pm 18:53 Sunny 78 25.6 47 8.3 33 33 N 7 11 29.79 1009 10 16 0.00 0.00
7:53 pm 19:53 Sunny 75 23.9 49 9.4 40 40 E 8 13 29.80 1009 10 16 0.00 0.00
8:53 pm 20:53 Clear 70 21.1 51 10.6 51 51 NE 3 6 29.83 1010 10 16 0.00 0.00
9:53 pm 21:53 Clear 66 18.9 48 8.9 52 52 NNE 15 24 29.86 1011 10 16 0.00 0.00
10:53 pm 22:53 Clear 63 17.2 48 8.9 58 58 N 10 17 29.88 1012 10 16 0.00 0.00
11:53 pm 23:53 Clear 59 15 47 8.3 64 64 ENE 7 11 29.88 1012 10 16 0.00 0.00

Powered by AerisWeather